This demonstration page uses our WeatherBlox Daily Observations layout. Learn more.

Left ArrowRight Arrow

47.50024, -111.30081

Hourly Observations for March 12, 2017

Temp ( °F °C ) Dew Point ( °F °C ) Humidity (%) Winds ( mph kmh ) Pressure ( in mb ) Visibility ( mi km ) Precip ( " mm )
12:53 am 00:53 Mostly Cloudy 19 -7.2 16 -8.9 88 88 W 7 11 30.09 1019 10 16 0.00 0.00
1:53 am 01:53 Clear 17 -8.3 14 -10 88 88 N 8 13 30.12 1020 10 16 0.00 0.03
3:53 am 03:53 Clear 11 -11.7 9 -12.8 92 92 N 3 6 30.13 1020 8 13 0.00 0.00
4:05 am 04:05 Partly Cloudy with Mist and Fog 11 -11.7 8 -13.3 88 88 N 3 6 30.21 1023 4 6 0.00 0.00
4:15 am 04:15 Mostly Cloudy with Mist and Fog 13 -10.6 10 -12.2 88 88 N 7 11 30.21 1023 5 8 0.00 0.00
4:53 am 04:53 Cloudy 16 -8.9 14 -10 92 92 NNE 5 7 30.14 1021 9 14 0.00 0.00
5:53 am 05:53 Cloudy with Mist and Fog 16 -8.9 14 -10 92 92 NE 6 9 30.17 1022 6 10 0.00 0.00
6:03 am 06:03 Cloudy with Mist and Fog 18 -8 16 -9 93 93 NNE 7 11 30.24 1024 2 3 0.00 0.00
6:23 am 06:23 Cloudy 17 -8.3 15 -9.4 92 92 NNE 8 13 30.24 1024 7 11 0.00 0.00
6:53 am 06:53 Cloudy 17 -8.3 15 -9.4 92 92 NNE 7 11 30.20 1023 7 11 0.00 0.00
7:46 am 07:46 Cloudy 16 -8.9 13 -10.6 88 88 NNE 10 17 30.33 1027 9 14 0.00 0.00
7:53 am 07:53 Cloudy 15 -9.4 12 -11.1 88 88 N 13 20 30.25 1025 9 14 0.00 0.00
8:53 am 08:53 Cloudy with Mist and Fog 13 -10.6 11 -11.7 92 92 N 8 13 30.29 1026 4 6 0.00 0.00
9:53 am 09:53 Cloudy 14 -10 11 -11.7 88 88 N 8 13 30.33 1027 7 11 0.00 0.00
10:53 am 10:53 Cloudy 15 -9.4 11 -11.7 84 84 NNW 9 15 30.36 1028 9 14 0.00 0.00
11:48 am 11:48 Cloudy 18 -8 10 -12 73 73 N 6 9 30.42 1030 10 16 0.00 0.00
11:53 am 11:53 Cloudy 18 -7.8 11 -11.7 74 74 NNW 7 11 30.39 1029 10 16 0.00 0.00
12:53 pm 12:53 Cloudy 19 -7.2 11 -11.7 71 71 Calm 30.40 1029 10 16 0.00 0.00
1:29 pm 13:29 Cloudy 20 -6.7 11 -11.7 68 68 N 6 9 30.42 1030 10 16 0.00 0.00
1:53 pm 13:53 Cloudy 20 -6.7 10 -12.2 65 65 NNE 6 9 30.41 1030 10 16 0.00 0.00
2:14 pm 14:14 Partly Cloudy 21 -6 10 -12 63 63 N 6 9 30.42 1030 10 16 0.00 0.00
2:53 pm 14:53 Sunny 23 -5 12 -11.1 63 63 Calm 30.42 1030 10 16 0.00 0.00
3:53 pm 15:53 Sunny 24 -4.4 13 -10.6 62 62 Calm 30.42 1030 10 16 0.00 0.00
4:53 pm 16:53 Sunny 24 -4.4 14 -10 65 65 E 7 11 30.43 1030 10 16 0.00 0.00
5:53 pm 17:53 Sunny 23 -5 14 -10 68 68 ENE 10 17 30.43 1031 10 16 0.00 0.00
6:53 pm 18:53 Sunny 20 -6.7 12 -11.1 71 71 E 7 11 30.43 1031 10 16 0.00 0.00
7:53 pm 19:53 Clear 17 -8.3 11 -11.7 77 77 ENE 9 15 30.45 1031 10 16 0.00 0.00
8:53 pm 20:53 Clear 16 -8.9 10 -12.2 77 77 ENE 8 13 30.45 1031 10 16 0.00 0.00
9:53 pm 21:53 Clear 15 -9.4 10 -12.2 80 80 ESE 6 9 30.44 1031 10 16 0.00 0.00
10:53 pm 22:53 Clear 14 -10 10 -12.2 84 84 ESE 6 9 30.41 1030 10 16 0.00 0.00
11:53 pm 23:53 Clear 15 -9.4 11 -11.7 84 84 ESE 5 7 30.37 1029 10 16 0.00 0.00

Powered by AerisWeather